User: anonymous
Location: Caltech
(34.1382°N, 118.1253°W)
Time: 18:37:36
(UTC-07:00)
Language:

RS-15 - Orbit

View from above orbital plane
View from above orbital plane
View from above satellite
View from above satellite

Ground track
Ground track

The orbit data is extracted from the following two-line orbital elements,

1 23439U 94085A   14259.84044942 -.00000039  00000-0  10000-3 0  7088
2 23439 064.8164 043.5142 0146457 064.8404 296.7626 11.27561988812337
Epoch (UTC): 16 September 2014 20:10:14
Eccentricity: 0.0146457
inclination: 64.8164°
perigee height: 1899 km
apogee height: 2145 km
right ascension of ascending node: 43.5142°
argument of perigee: 64.8404°
revolutions per day: 11.27561988
mean anomaly at epoch: 296.7626°
orbit number at epoch: 81233

The dashed part of the orbit path shows where the satellite is in the earth's shadow,  

DLR